Regional Weather Roundup
Issued by NWS

Home | Current Version | Previous Version | Text Only | Print | Product List | Glossary Off
Versions: 1 2 3 4 5 6 7 8 9 10 11 12 13 14 15 16 17 18 19 20 21 22 23 24 25 26 27 28 29 30 31 32 33 34 35 36 37 38 39 40 41 42 43 44 45 46 47 48 49 50

000
ASUS43 KLOT 140458
RWRIL

ILLINOIS REGIONAL WEATHER ROUNDUP
NATIONAL WEATHER SERVICE CHICAGO/ROMEOVILLE IL
1200 AM CDT MON JUL 14 2014

NOTE: "FAIR" INDICATES FEW OR NO CLOUDS BELOW 12,000 FEET WITH NO
SIGNIFICANT WEATHER AND/OR OBSTRUCTIONS TO VISIBILITY.

* THESE STATIONS ARE NOT UNDER NWS QUALITY CONTROL. THEY ALSO MAY NOT
  REPORT WEATHER SUCH AS PRECIPITATION OR FOG.

ILZ001-002-007-009-015-016-024-140600-
NORTHWEST ILLINOIS

CITY           SKY/WX    TMP DP  RH WIND       PRES   REMARKS
MOLINE         CLEAR     66  64  93 CALM      29.92S
$$

ILZ003-004-008-010-011-017-018-140600-
NORTH CENTRAL ILLINOIS

CITY           SKY/WX    TMP DP  RH WIND       PRES   REMARKS
ROCKFORD       NOT AVBL
$$

ILZ005-006-012>014-019>023-140600-
NORTHEAST ILLINOIS

CITY           SKY/WX    TMP DP  RH WIND       PRES   REMARKS
CHICAGO-OHARE  PTCLDY    72  50  45 NW10      29.90S
CHICAGO-MIDWAY PTCLDY    75  64  68 W8        29.90S
AURORA         PTCLDY    65  62  90 CALM      29.92S
WAUKEGAN       CLEAR     65  60  84 NW5       29.90S
DUPAGE AIRPORT PTCLDY    69  58  67 NW7       29.91F
WHEELING       CLEAR     72  50  45 NW7       29.91S
NORTHERLY ISL    N/A     74  60  61 W6          N/A
$$

LMZ740>746-140600-
SOUTHERN LAKE MICHIGAN

STATION/POSITION SKY/WX   TEMP    WIND        PRES    VSBY  WAVE
                          AIR SEA DIR/SP/G                  HT/PER
                          (F)     (DEG/KT/KT) (MB)    (MI)  (FT/S)
SOUTHERN BUOY              66 65  340/  4/  4 1011.9R         1
WAUKEGAN HARBOR            72      40/  5/  6 1013.5S
HARRISON CRIB              76     270/ 13/ 15   N/A
BURNHAM HARBOR             75     270/  9/ 12   N/A
CALUMET HARBOR             74     240/  2/  5 1013.3S
MICHIGAN CITY              76     200/ 13/ 17   N/A
$$

ILZ025>027-034>036-040-047-049-050-058-095>099-140600-
WEST-CENTRAL ILLINOIS

CITY           SKY/WX    TMP DP  RH WIND       PRES   REMARKS
$$

ILZ028>032-037-038-041>044-048-051>054-059>061-140600-
CENTRAL ILLINOIS

CITY           SKY/WX    TMP DP  RH WIND       PRES   REMARKS
PEORIA         NOT AVBL
SPRINGFIELD    PTCLDY    71  69  93 CALM      29.94R
TAYLORVILLE    NOT AVBL
$$

ILZ033-039-045-046-055>057-062-063-140600-
EAST-CENTRAL ILLINOIS

CITY           SKY/WX    TMP DP  RH WIND       PRES   REMARKS
CHAMPAIGN      MOCLDY    71  69  93 CALM      29.94R
MATTOON        CLOUDY    74  71  91 CALM      29.91F
$$

ILZ079-100>102-140600-
SOUTHWEST ILLINOIS

CITY           SKY/WX    TMP DP  RH WIND       PRES   REMARKS
BELLEVILLE     TSTM      73  73 100 W2        29.93R
CAHOKIA*       LGT RAIN  75  73  93 CALM      29.94S
$$

ILZ064>066-069>071-074>076-080>082-084>086-088>090-092>094-140600-
SOUTH-CENTRAL ILLINOIS

CITY           SKY/WX    TMP DP  RH WIND       PRES   REMARKS
CARBONDALE     CLOUDY    74  72  93 SE3       29.94S
$$

ILZ067-068-072-073-078-083-087-091-140600-
SOUTHEAST ILLINOIS

CITY           SKY/WX    TMP DP  RH WIND       PRES   REMARKS
$$

ABBREVIATIONS USED IN REMARKS
   TC - TEMPERATURE IN CELSIUS
  WCI - WIND CHILL INDEX
   HX - HEAT INDEX
  VSB - VISIBILITY
$$



USA.gov is the U.S. government's official web portal to all federal, state and local government web resources and services.